Meteo Giornale » Osservazioni meteo Repubblica Ceca » Ostrava-Mosnov

ore: 08:30 - Osservazioni Meteo Ostrava-Mosnov
Lat. 49° 41' N Lon. 18° 7' E Alt. 256 metri s.l.m.

coperto_pioggia Europe/Prague

14 °C

Pioggia Debole

Temp. 24 Ore

14 °C

17 °C

Nord

16.7 Km/h

Dew point 13 °C

Umidità 93 %

Visibilità  8 Km

Il sole sorge alle ore 05:23

Il sole tramonta alle ore 20:23

Data e Ora Cielo e Fenomeni T °C DP °C Um. % Pres. hPa Vis. km Vento km/h
Oggi h: 08:30 coperto_pioggia Pioggia Debole 14 13 93 1019 8 N 16.7
Oggi h: 08:00 coperto_pioggia Pioggia Debole 14 13 93 1019 6 N 16.7
Oggi h: 07:43 coperto_pioggia Pioviggine Leggera 14 13 93 1018 8 N 16.7
Oggi h: 07:30 coperto_pioggia Pioggia 14 13 93 1018 4 N 14.8
Oggi h: 07:00 coperto_pioggia Pioggia 14 13 93 1018 4 N/NE 13
Oggi h: 06:30 coperto_pioggia Pioggia 14 13 93 1018 5 N 13
Oggi h: 06:00 coperto_pioggia Pioggia Debole 14 13 93 1018 8 N 14.8
Oggi h: 05:54 coperto_pioggia Pioggia Debole 14 13 93 1018 8 N 14.8
Oggi h: 05:30 coperto_pioggia Pioviggine Leggera 14 13 93 1018 10 N 13
Oggi h: 05:00 coperto_pioggia Pioviggine Leggera 14 13 93 1017 10 N/NE 13
Oggi h: 04:30 coperto_pioggia Pioviggine Leggera 14 13 93 1017 8 N/NE 13
Oggi h: 04:00 coperto_pioggia Pioviggine Leggera 14 13 93 1017 10 N/NE 13
Oggi h: 03:30 coperto Coperto 14 13 93 1017 10 N/NE 14.8
Oggi h: 03:00 coperto Coperto 14 13 93 1017 10 N 13
Oggi h: 02:50 coperto Coperto 14 13 93 1017 10 N/NE 14.8
Oggi h: 02:30 coperto_pioggia Pioviggine Leggera 14 13 93 1017 8 N 16.7
Oggi h: 02:00 coperto_pioggia Pioggia Debole 14 13 93 1017 7 N 11.1
Oggi h: 01:52 coperto_pioggia Pioggia Debole 14 13 93 1017 7 N 14.8
Oggi h: 01:30 coperto_pioggia Pioggia Debole Foschia 14 13 93 1017 4 N/NE 14.8
Oggi h: 01:00 coperto_pioggia Pioggia Debole Foschia 14 13 93 1017 5 NE 9.3
Oggi h: 00:30 coperto Coperto 14 13 93 1016 10 N/NE 13
Oggi h: 00:00 coperto_pioggia Pioviggine Leggera 14 13 93 1016 7 N/NE 13
Ieri h: 23:30 coperto_pioggia Pioviggine Leggera 14 13 93 1016 7 N/NE 13
Ieri h: 23:00 coperto Coperto 14 13 93 1016 10 N 16.7
Ieri h: 22:30 coperto Coperto 14 13 93 1016 10 N 18.5
Ieri h: 22:00 coperto Coperto 14 13 93 1016 10 N 16.7
Ieri h: 21:30 coperto Coperto 14 13 93 1015 10 N 16.7
Ieri h: 21:00 coperto Coperto 14 13 93 1015 10 N 16.7
Ieri h: 20:30 coperto_pioggia Pioviggine Leggera 14 13 93 1015 8 N 16.7
Ieri h: 20:00 coperto_pioggia Pioviggine Leggera 14 13 93 1015 10 N 16.7
Ieri h: 19:53 coperto_pioggia Pioviggine Leggera 14 13 93 1015 10 N 16.7
Ieri h: 19:30 coperto Coperto 15 14 93 1014 10 N 16.7
Ieri h: 19:00 coperto Coperto 15 14 93 1013 10 N 14.8
Ieri h: 18:30 coperto Coperto 15 14 93 1013 10 N 16.7
Ieri h: 18:00 coperto Coperto 16 14 87 1012 10 N 14.8
Ieri h: 17:30 coperto Coperto 16 14 87 1012 10 N 16.7
Ieri h: 17:00 coperto Coperto 16 14 87 1012 10 N 13
Ieri h: 16:30 coperto Coperto 16 15 93 1012 10 N 7.4
Ieri h: 16:00 coperto_pioggia Pioggia Debole 16 15 93 1011 10 N/NO 14.8
Ieri h: 15:30 coperto_pioggia Pioggia Debole 16 15 93 1011 8 N 11.1
Ieri h: 15:00 coperto Rovescio nelle Vicinanze 16 15 93 1011 10 N 14.8
Ieri h: 14:30 coperto Coperto 17 15 88 1011 10 N 11.1
Ieri h: 14:00 coperto Coperto 17 15 88 1010 10 N 13
Ieri h: 13:30 coperto_pioggia Pioggia Debole 16 16 100 1010 9 N 11.1
Ieri h: 13:00 coperto_pioggia Pioggia Debole 16 16 100 1009 9 N 13
Ieri h: 12:30 coperto_pioggia Pioggia Debole 16 16 100 1009 6 N/NE 9.3
Ieri h: 12:00 coperto_pioggia Pioggia 16 15 93 1009 6 N/NE 7.4
Ieri h: 11:30 coperto_pioggia Pioggia Debole 16 15 93 1008 9 N/NE 7.4
Ieri h: 11:00 coperto_pioggia Pioggia Debole 16 15 93 1008 8 N/NE 9.3
Ieri h: 10:30 coperto_pioggia Pioggia Debole 16 15 93 1008 8 N/NE 9.3
Ieri h: 10:00 coperto_pioggia Pioggia Debole 16 15 93 1007 6 N 7.4